This is the latest recevied weather packets stored in our database for station/object DC4THF-13. If no packets are shown the sender has not sent any weather packets the latest 10 day(s).
| Time | Temp. | Humidity | Pressure | Rain* | Wind** | Luminosity | Snow |
|---|---|---|---|---|---|---|---|
| 1777713741 | 23.89° C | 25% | 1016.5 hPa | 0 mm | - | - | - |
| 1777713138 | 23.89° C | 25% | 1016.7 hPa | 0 mm | - | - | - |
| 1777712535 | 23.89° C | 25% | 1016.8 hPa | 0 mm | - | - | - |
| 1777711992 | 23.33° C | 28% | 1017 hPa | 0 mm | - | - | - |
| 1777711389 | 23.33° C | 29% | 1016.9 hPa | 0 mm | - | - | - |
| 1777710786 | 23.33° C | 30% | 1017 hPa | 0 mm | - | - | - |
| 1777710183 | 22.78° C | 30% | 1017.2 hPa | 0 mm | - | - | - |
| 1777709579 | 22.78° C | 32% | 1017.3 hPa | 0 mm | - | - | - |
| 1777708976 | 22.22° C | 33% | 1017.5 hPa | 0 mm | - | - | - |
| 1777708373 | 22.22° C | 37% | 1017.7 hPa | 0 mm | - | - | - |
| 1777707770 | 21.67° C | 38% | 1017.7 hPa | 0 mm | - | - | - |
| 1777707166 | 22.22° C | 39% | 1017.8 hPa | 0 mm | - | - | - |
| 1777706562 | 20.56° C | 41% | 1017.9 hPa | 0 mm | - | - | - |
| 1777705958 | 20° C | 40% | 1018.1 hPa | 0 mm | - | - | - |
| 1777705354 | 20° C | 41% | 1018.3 hPa | 0 mm | - | - | - |
| 1777704750 | 20° C | 42% | 1018.3 hPa | 0 mm | - | - | - |
| 1777704146 | 18.89° C | 42% | 1018.5 hPa | 0 mm | - | - | - |
| 1777703542 | 17.78° C | 43% | 1018.6 hPa | 0 mm | - | - | - |
| 1777702938 | 17.78° C | 45% | 1018.6 hPa | 0 mm | - | - | - |
| 1777702395 | 17.22° C | 49% | 1018.7 hPa | 0 mm | - | - | - |
| 1777701792 | 17.22° C | 52% | 1018.8 hPa | 0 mm | - | - | - |
| 1777701189 | 16.67° C | 55% | 1018.9 hPa | 0 mm | - | - | - |
| 1777700586 | 15° C | 61% | 1018.9 hPa | 0 mm | - | - | - |
| 1777699982 | 13.89° C | 63% | 1019 hPa | 0 mm | - | - | - |
| 1777699379 | 12.78° C | 69% | 1019.1 hPa | 0 mm | - | - | - |
* Rain latest hour (hover to see other rain measurements)
** Current wind speed in m/s (hover to see current wind gust speed)